Regional Weather Roundup
Issued by NWS Northern Indiana

Home | Current Version | Previous Version | Text Only | Print | Product List | Glossary Off
Versions: 1 2 3 4 5 6 7 8 9 10 11 12 13 14 15 16 17 18 19 20 21 22 23 24 25 26 27 28 29 30 31 32 33 34 35 36 37 38 39 40 41 42 43 44 45 46 47 48 49 50

000
ASUS43 KIWX 291410
RWRIWX

KIWX WEATHER ROUNDUP
NATIONAL WEATHER SERVICE NORTHERN INDIANA
1000 AM EDT WED MAR 29 2017

NOTE: "FAIR" INDICATES FEW OR NO CLOUDS BELOW 12,000 FEET WITH NO
SIGNIFICANT WEATHER AND/OR OBSTRUCTIONS TO VISIBILITY.

* THESE STATIONS ARE NOT UNDER NWS QUALITY CONTROL. THEY ALSO MAY NOT
  REPORT WEATHER SUCH AS PRECIPITATION OR FOG.

INZ001>027-291500-
NORTHERN INDIANA

CITY           SKY/WX    TMP DP  RH WIND       PRES   REMARKS
GARY*          CLOUDY    41  41 100 NE7       30.24F FOG
VALPARAISO     CLOUDY    44  40  85 E12       30.22F
MICHIGAN CITY* CLOUDY    41  41 100 E6        30.24F
LAPORTE*       CLOUDY    41  37  84 E10       30.25R
KNOX*          MOSUNNY   41  23  48 E7        30.24R
SOUTH BEND     MOSUNNY   41  35  79 SE14      30.27R
ELKHART*       MOSUNNY   41  36  81 E12       30.25F
GOSHEN         SUNNY     42  34  73 E12       30.25F
MONTICELLO*    CLOUDY    45  38  77 E10       30.20F
LOGANSPORT*    CLOUDY    43  36  75 E10       30.23S
ROCHESTER*     CLOUDY    46  37  71 E14       30.25R
WARSAW*        SUNNY     41  36  81 E10       30.24F
ANGOLA*        SUNNY     41  34  75 E14       30.25F
FORT WAYNE     PTSUNNY   42  36  79 E13       30.25F
HUNTINGTON*    PTSUNNY   41  36  82 E12       30.24R
PERU/GRISSOM   MOSUNNY   43  38  82 E13       30.21R
MARION*        MOSUNNY   40  35  82 E13       30.23R HAZE

$$
INZ028>050-291500-
CENTRAL INDIANA

CITY           SKY/WX    TMP DP  RH WIND       PRES   REMARKS
LAFAYETTE      SUNNY     47  40  76 E20       30.18F
KOKOMO*        SUNNY     43  37  79 E15       30.23R
MUNCIE*        PTSUNNY   41  36  82 E15       30.22S
INDIANAPOLIS   MOSUNNY   48  39  71 E14       30.18S

$$
MIZ043>046-050>051-056>058-064>065-071>073-077>080-291500-
SOUTHWEST LOWER MICHIGAN

CITY           SKY/WX    TMP DP  RH WIND       PRES   REMARKS
BATTLE CREEK   SUNNY     43  34  70 E9        30.27S
BENTON HARBOR  MOSUNNY   45  35  68 E12       30.26S
COLDWATER*     SUNNY     42  35  75 E7        30.26F
HILLSDALE*     SUNNY     43  32  65 E12       30.25F
HOLLAND        MOSUNNY   42  34  73 E9        30.29S
GRAND RAPIDS   PTSUNNY   42  37  82 E7        30.29S
KALAMAZOO      SUNNY     43  32  65 VRB5      30.28S
STURGIS*       SUNNY     41  34  76 E12       30.24F
THREE RIVERS*  FAIR      42  35  75 E8        30.26F

$$
OHZ001>008-015>018-024>025-291500-
NORTHWEST OHIO

CITY           SKY/WX    TMP DP  RH WIND       PRES   REMARKS
WAUSEON*       FAIR      43  36  75 E9        30.28R
DEFIANCE       SUNNY     40  34  79 E9        30.28S
FINDLAY        SUNNY     43  34  70 NE9       30.26R
TOLEDO EXPRESS SUNNY     41  35  79 E5        30.29R
TOLEDO METCALF SUNNY     43  36  76 NE6       30.30R
LIMA           PTSUNNY   43  38  82 E12       30.24S

$$
AND FOR LAKE MICHIGAN COASTAL AND OPEN LAKE BUOY OBSERVATIONS

STATION/POSITION TEMP    WIND        PRES    VSBY  WAVE
                 AIR SEA DIR/SP/G                  HT/PER
                 (F)     (DEG/KT/KT) (MB)    (MI)  (FT/S)
CALUMET HARBOR    37      10/  5/  7 1023.4F
MICHIGAN CITY     40      90/  6/  8   N/A
BURNS HARBOR      39      60/  8/  9 1024.4F
SAINT JOSEPH      44     100/  3/  6 1025.1

$$
&&




USA.gov is the U.S. government's official web portal to all federal, state and local government web resources and services.